TimeEST,TemperatureF,Dew PointF,Humidity,Sea Level PressureIn,VisibilityMPH,Wind Direction,Wind SpeedMPH,Gust SpeedMPH,PrecipitationIn,Events,Conditions,WindDirDegrees,DateUTC
12:53 AM,42.1,37.0,82,29.73,9.0,South,21.9,32.2,0.04,Rain,Light Rain,190,2013-02-19 05:53:00
1:27 AM,42.8,37.4,81,29.69,7.0,South,27.6,41.4,0.03,Rain,Light Rain,190,2013-02-19 06:27:00
1:53 AM,41.0,37.0,86,29.68,10.0,South,23.0,34.5,0.03,,Overcast,180,2013-02-19 06:53:00
2:34 AM,42.8,37.4,81,29.64,10.0,South,21.9,29.9,N/A,,Overcast,190,2013-02-19 07:34:00
2:53 AM,42.1,37.0,82,29.65,10.0,South,24.2,35.7,N/A,,Overcast,190,2013-02-19 07:53:00
3:53 AM,41.0,37.0,86,29.62,10.0,SSW,26.5,39.1,0.01,,Overcast,200,2013-02-19 08:53:00
4:53 AM,42.1,37.0,82,29.61,10.0,SSW,23.0,35.7,N/A,,Overcast,200,2013-02-19 09:53:00
5:46 AM,37.4,33.8,87,29.63,4.0,West,20.7,27.6,0.03,Rain,Heavy Rain,280,2013-02-19 10:46:00
5:53 AM,35.1,32.0,89,29.65,5.0,West,16.1,21.9,0.04,Rain,Light Rain,280,2013-02-19 10:53:00
6:17 AM,33.8,30.2,87,29.64,1.8,West,11.5,19.6,0.02,Snow,Light Snow,270,2013-02-19 11:17:00
6:40 AM,33.8,30.2,87,29.65,1.0,West,13.8,20.7,0.04,Snow,Light Snow,260,2013-02-19 11:40:00
6:53 AM,32.0,30.9,96,29.68,1.2,West,13.8,-,0.04,Snow,Light Snow,260,2013-02-19 11:53:00
7:53 AM,32.0,28.9,88,29.71,7.0,West,15.0,27.6,0.00,,Overcast,270,2013-02-19 12:53:00
8:53 AM,28.9,24.1,82,29.76,10.0,West,16.1,27.6,N/A,,Overcast,270,2013-02-19 13:53:00
9:53 AM,27.0,21.9,81,29.78,10.0,West,20.7,29.9,N/A,,Overcast,280,2013-02-19 14:53:00
10:53 AM,27.0,19.9,75,29.79,10.0,WSW,24.2,32.2,N/A,,Overcast,250,2013-02-19 15:53:00
11:27 AM,26.6,21.2,80,29.77,8.0,WSW,20.7,32.2,0.00,Snow,Light Snow,250,2013-02-19 16:27:00
11:41 AM,26.6,21.2,80,29.78,7.0,WSW,20.7,32.2,0.00,Snow,Light Snow,250,2013-02-19 16:41:00
11:53 AM,27.0,19.9,75,29.81,9.0,West,25.3,34.5,0.00,,Overcast,260,2013-02-19 16:53:00
1:53 PM,26.1,19.9,78,29.82,4.0,West,19.6,28.8,0.00,Snow,Light Snow,260,2013-02-19 18:53:00
2:00 PM,26.6,19.4,74,29.79,1.8,West,20.7,29.9,0.00,Snow,Light Snow,280,2013-02-19 19:00:00
2:53 PM,24.1,15.1,69,29.86,9.0,WSW,26.5,36.8,0.00,Snow,Light Snow,250,2013-02-19 19:53:00
3:03 PM,24.8,15.8,69,29.83,10.0,West,24.2,34.5,0.00,,Overcast,260,2013-02-19 20:03:00
3:53 PM,25.0,17.1,72,29.88,7.0,West,21.9,27.6,0.00,Snow,Light Snow,260,2013-02-19 20:53:00
4:07 PM,24.8,17.6,74,29.85,3.0,West,17.3,27.6,0.00,Snow,Light Snow,260,2013-02-19 21:07:00
4:14 PM,24.8,17.6,74,29.86,2.0,West,17.3,25.3,0.00,Snow,Light Snow,260,2013-02-19 21:14:00
4:32 PM,24.8,17.6,74,29.87,1.5,West,18.4,34.5,0.00,Snow,Light Snow,270,2013-02-19 21:32:00
4:38 PM,24.8,17.6,74,29.87,3.0,West,23.0,36.8,0.00,Snow,Light Snow,260,2013-02-19 21:38:00
4:42 PM,24.8,17.6,74,29.88,1.8,West,19.6,36.8,0.00,Snow,Light Snow,270,2013-02-19 21:42:00
4:53 PM,23.0,17.1,78,29.91,2.5,West,25.3,32.2,0.00,Snow,Light Snow,270,2013-02-19 21:53:00
5:08 PM,23.0,15.8,74,29.89,6.0,West,21.9,34.5,0.00,Snow,Light Snow,280,2013-02-19 22:08:00
5:15 PM,21.2,15.8,80,29.90,5.0,West,23.0,32.2,0.00,Snow,Light Snow,270,2013-02-19 22:15:00
5:25 PM,21.2,15.8,80,29.90,2.5,West,19.6,33.4,0.00,Snow,Light Snow,270,2013-02-19 22:25:00
5:28 PM,21.2,15.8,80,29.91,4.0,West,19.6,33.4,0.00,Snow,Light Snow,280,2013-02-19 22:28:00
5:53 PM,21.0,14.0,74,29.96,9.0,West,17.3,29.9,0.00,Snow,Light Snow,280,2013-02-19 22:53:00
7:25 PM,19.4,12.2,74,29.96,8.0,West,19.6,27.6,0.00,,Overcast,280,2013-02-20 00:25:00
7:50 PM,19.4,12.2,74,29.97,10.0,West,21.9,28.8,0.00,,Overcast,270,2013-02-20 00:50:00
7:53 PM,19.9,12.0,71,30.01,9.0,West,19.6,28.8,0.00,Snow,Light Snow,270,2013-02-20 00:53:00
8:27 PM,19.4,12.2,74,29.98,7.0,West,20.7,33.4,0.00,Snow,Light Snow,280,2013-02-20 01:27:00
8:39 PM,19.4,10.4,68,29.99,7.0,West,18.4,31.1,0.00,Snow,Light Snow,280,2013-02-20 01:39:00
8:53 PM,19.0,12.0,74,30.04,8.0,WNW,20.7,28.8,0.00,Snow,Light Snow,290,2013-02-20 01:53:00
9:53 PM,18.0,12.0,78,30.06,5.0,WNW,18.4,28.8,0.00,Snow,Light Snow,300,2013-02-20 02:53:00
10:48 PM,17.6,10.4,73,30.02,2.5,WNW,16.1,19.6,0.00,Snow,Light Snow,290,2013-02-20 03:48:00
10:53 PM,17.1,10.9,77,30.07,3.0,West,17.3,26.5,0.00,Snow,Light Snow,280,2013-02-20 03:53:00
11:41 PM,17.6,10.4,73,30.02,5.0,WNW,16.1,25.3,0.00,Snow,Light Snow,300,2013-02-20 04:41:00
11:53 PM,17.1,10.0,74,30.08,9.0,WNW,10.4,19.6,0.00,,Overcast,300,2013-02-20 04:53:00